Regional Weather Roundup
Issued by NWS

Home | Current Version | Previous Version | Text Only | Print | Product List | Glossary Off
Versions: 1 2 3 4 5 6 7 8 9 10 11 12 13 14 15 16 17 18 19 20 21 22 23 24 25 26 27 28 29 30 31 32 33 34 35 36 37 38 39 40 41 42 43 44 45 46 47 48 49 50

000
ASUS43 KIND 261909
RWRIN

WEATHER ROUNDUP FOR INDIANA
NATIONAL WEATHER SERVICE INDIANAPOLIS IN
200 PM EST SUN FEB 26 2017

NOTE: "FAIR" INDICATES FEW OR NO CLOUDS BELOW 12,000 FEET WITH NO
SIGNIFICANT WEATHER AND/OR OBSTRUCTIONS TO VISIBILITY.

* - STATION DOES NOT REPORT WEATHER SUCH AS PRECIPITATION OR FOG.

+ - STATION NOT QUALITY CONTROLLED BY THE NATIONAL WEATHER SERVICE.
    USE DATA WITH CAUTION...ESPECIALLY DEWPOINT AND RELATIVE
    HUMIDITY OBSERVATIONS.

INZ001>003-010>013-019-020-262000-
NORTHWEST INDIANA

CITY           SKY/WX    TMP DP  RH WIND       PRES   REMARKS
GARY /AIRPORT/ MOSUNNY   46  12  25 SW23G41   29.98F
KNOX *+        MOSUNNY   43  -8  11 SW22G30   30.02F
LA PORTE +     SUNNY     43  22  43 SW23G30   30.00F
MICHIGAN CITY+ MOSUNNY   45  23  42 SW17G29   29.99F
MONTICELLO +   PTSUNNY   43  18  35 S17G29    30.04F
RENSSELAER +   SUNNY     45  18  33 SW26G35   30.03F
VALPARAISO     SUNNY     47  19  33 SW22G39   30.00F

$$

LMZ046-743>745-262000-
SOUTHERN LAKE MICHIGAN

STATION/POSITION TIME  TEMP    WIND        PRES    WAVE
                       AIR SEA DIR/SP/G            HT
                 (UTC) (F)     (DEG/KT/KT) (MB)    (FT)
BURNS HARBOR     1840   43     220/ 20/ 34 1015.6F
MICHIGAN CITY    1840   41     190/ 25/ 29   N/A

$$

INZ004-005-014>016-021>024-262000-
NORTH CENTRAL INDIANA

CITY           SKY/WX    TMP DP  RH WIND       PRES   REMARKS
ELKHART        SUNNY     41  19  42 SW18G25   30.00F
GOSHEN         CLOUDY    42  19  39 SW23G30   30.02F
LOGANSPORT +   SUNNY     43  23  45 SW22      30.07F
PERU/GRISSOM   SUNNY     43  22  43 SW22G29   30.05F
ROCHESTER +    SUNNY     43  21  42 S18G26    30.05F
SOUTH BEND     SUNNY     42  19  39 SW18G35   30.00F
WARSAW +       PTSUNNY   41  18  38 S12G24    30.03F

$$

INZ006>009-017-018-025>027-262000-
NORTHEAST INDIANA

CITY           SKY/WX    TMP DP  RH WIND       PRES   REMARKS
ANGOLA *+      PTSUNNY   39  27  60 SW16      30.02F
AUBURN +       SUNNY     41  18  38 SW15G22   30.05F
FORT WAYNE     MOSUNNY   39  22  50 SW21G28   30.07F
HUNTINGTON +   SUNNY     40  20  45 S13G21    30.06F
KENDALLVILLE + PTSUNNY   39  19  44 SW16G31   30.03F

$$

INZ028-029-035-036-043>045-051>053-262000-
WEST CENTRAL INDIANA

CITY           SKY/WX    TMP DP  RH WIND       PRES   REMARKS
LAFAYETTE      SUNNY     44  19  36 SW15G26   30.07F
TERRE HAUTE    SUNNY     45  13  27 SW17G25   30.13F

$$

INZ030>032-037>040-046>048-054>057-064-065-262000-
CENTRAL INDIANA

CITY           SKY/WX    TMP DP  RH WIND       PRES   REMARKS
CP ATTERBURY + SUNNY     46  12  25 S16       30.14F
COLUMBUS       SUNNY     45  16  31 S14       30.16F
FISHERS *+     SUNNY     43  21  42 SW14G22   30.11F
FRANKFORT +    SUNNY     46  26  46 SW24      30.09F
GREENWOOD *+   SUNNY     46  15  28 SW13G20   30.13F
INDIANAPOLIS   MOSUNNY   45  14  28 S15       30.11F
-EAGLE CREEK   SUNNY     44  14  29 S14G20    30.11F
KOKOMO +       SUNNY     42  21  43 SW21      30.08F
MARION +       SUNNY     40  23  51 SW17G25   30.09F
MT COMFORT *+  SUNNY     43  16  33 S13G18    30.12F
SHELBYVILLE    SUNNY     45  16  31 SW16G23   30.12F
ZIONSVILLE +   SUNNY     41  22  46 SW18G24   30.10F

$$

INZ033-034-041-042-049-050-058-059-262000-
EAST CENTRAL INDIANA

CITY           SKY/WX    TMP DP  RH WIND       PRES   REMARKS
MUNCIE         SUNNY     42  16  34 SW18      30.09F

$$

INZ060-061-067>069-081>083-085>088-262000-
SOUTHWEST INDIANA

CITY           SKY/WX    TMP DP  RH WIND       PRES   REMARKS
EVANSVILLE     SUNNY     50  16  25 S9        30.18F
HUNTINGBURG *+ SUNNY     47  14  26 S10G20    30.18F
WASHINGTON +   SUNNY     47  14  26 S15       30.16F

$$

INZ062-063-066-070>080-084-089>092-262000-
SOUTH CENTRAL AND SOUTHEAST INDIANA

CITY           SKY/WX    TMP DP  RH WIND       PRES   REMARKS
BEDFORD +      SUNNY     46   9  21 SW8       30.16F
BLOOMINGTON    SUNNY     46  12  25 S13G25    30.14F
MADISON *+     SUNNY     45  14  29 S9        30.20S
NORTH VERNON + SUNNY     45  16  31 S7        30.17F
SEYMOUR +      SUNNY     48  21  34 MISG      30.17

$$




USA.gov is the U.S. government's official web portal to all federal, state and local government web resources and services.